x

8461490 - New London, Ct (nlnc3) Weather Station

9:54am - Thu 14th Dec 2017 All times are EST. -5 hours from GMT.

  • Wind
    5mph, 7mph gusts
  • Sea Temp 50°f
  • Air Temp 24°f
  • Sea Pressure 1004.3mb
  • 8461490 - New London, Ct
  • 8461490 - New London, Ct

More Historic Weather Station data

Upgrade to MSW Pro to gain access to the past 30 days of data for over 8000 Wavebouys and Weather Stations around the globe.

Join

Comparision Forecast

View Surf forecast
   
Thu 12/14 9:54am 5 7 mph 1004.3mb 50f 24f
9:48am 3 6 mph 1004.1mb 50f 24f
9:42am 3 6 mph 1003.9mb 50f 23f
9:36am 3 7 mph 1003.7mb 50f 23f
9:30am 2 7 mph 1003.7mb 50f 23f
9:24am 3 7 mph 1003.5mb 50f 23f
9:18am 3 7 mph 1003.4mb 50f 23f
9:12am 5 6 mph 1003.3mb 50f 23f
9:06am 2 6 mph 1003.3mb 50f 23f
9:00am 3 6 mph 1003.3mb 50f 23f
8:54am 2 6 mph 1003.4mb 50f 23f
8:48am 5 6 mph 1003.1mb 50f 23f
8:42am 2 6 mph 1003.1mb 50f 23f
8:36am 3 7 mph 1003.1mb 50f 23f
8:30am 5 6 mph 1003mb 50f 22f
8:24am 2 6 mph 1003.1mb 50f 23f
8:18am 5 6 mph 1002.9mb 50f 23f
8:12am 3 6 mph 1002.8mb 50f 22f
8:06am 3 6 mph 1002.7mb 50f 22f
8:00am 5 7 mph 1002.6mb 50f 23f
7:54am 3 6 mph 1002.5mb 50f 22f
7:48am 3 7 mph 1002.4mb 50f 22f
7:42am 2 5 mph 1002.4mb 50f 23f
7:36am 2 6 mph 1002.2mb 51f 23f
7:30am 3 6 mph 1002.1mb 51f 23f
7:24am 3 8 mph 1001.9mb 50f 23f
7:18am 6 9 mph 1001.7mb 50f 23f
7:12am 5 8 mph 1001.6mb 50f 23f
7:06am 3 7 mph 1001.5mb 50f 23f
7:00am 5 7 mph 1001.5mb 50f 23f
6:54am 5 8 mph 1001.6mb 50f 23f
6:48am 5 8 mph 1001.5mb 50f 23f
6:42am 3 6 mph 1001.4mb 51f 24f
6:36am 5 9 mph 1001.4mb 51f 23f
6:30am 3 7 mph 1001.2mb 51f 23f
6:24am 2 6 mph 1001.1mb 51f 23f
6:18am 3 8 mph 1001.1mb 51f 23f
6:12am 3 6 mph 1001.2mb 51f 23f
6:06am 3 6 mph 1001.4mb 51f 23f
6:00am 3 7 mph 1001.3mb 51f 23f
5:54am 3 6 mph 1001.5mb 51f 23f
5:48am 2 6 mph 1001.5mb 51f 23f
5:42am 3 7 mph 1001.7mb 51f 23f
5:36am 5 6 mph 1001.7mb 51f 23f
5:30am 5 7 mph 1001.8mb 51f 23f
5:24am 3 6 mph 1001.8mb 51f 23f
5:18am 3 6 mph 1001.7mb 51f 23f
5:12am 2 6 mph 1001.7mb 51f 23f
5:06am 2 6 mph 1001.6mb 51f 23f
5:00am 2 6 mph 1001.8mb 51f 23f
4:54am 2 7 mph 1001.9mb 50f 23f
4:48am 6 8 mph 1001.9mb 51f 22f
4:42am 5 8 mph 1002.1mb 51f 22f
4:36am 3 5 mph 1002.1mb 51f 23f
4:30am 2 5 mph 1002.1mb 51f 22f
4:24am 3 6 mph 1002.1mb 51f 22f
4:18am 5 6 mph 1002.1mb 50f 22f
4:12am 3 6 mph 1002.2mb 50f 23f
4:06am 2 3 mph 1002.1mb 50f 23f
4:00am 3 6 mph 1002.1mb 50f 23f
3:54am 2 6 mph 1002.2mb 50f 23f
3:48am 3 6 mph 1002.3mb 51f 23f
3:42am 3 6 mph 1002.4mb 50f 23f
3:36am 3 5 mph 1002.5mb 50f 23f
3:30am 3 5 mph 1002.6mb 50f 23f
3:24am 3 6 mph 1002.6mb 50f 23f
3:18am 3 5 mph 1002.6mb 49f 23f
3:12am 3 5 mph 1002.6mb 51f 23f
3:06am 3 5 mph 1002.7mb 50f 23f
3:00am 3 6 mph 1002.9mb 50f 23f
2:54am 3 6 mph 1003.1mb 50f 23f
2:48am 3 6 mph 1003.4mb 50f 23f
2:42am 3 6 mph 1003.5mb 50f 23f
2:36am 3 6 mph 1003.6mb 51f 23f
2:30am 2 3 mph 1003.7mb 51f 23f
2:24am 3 8 mph 1003.8mb 51f 23f
2:18am 6 10 mph 1003.9mb 51f 23f
2:12am 7 10 mph 1003.9mb 51f 24f
2:06am 5 9 mph 1004mb 51f 24f
2:00am 5 11 mph 1004mb 51f 24f
1:54am 3 13 mph 1004mb 51f 24f
1:48am 6 14 mph 1004.1mb 51f 25f
1:42am 9 17 mph 1004.2mb 51f 25f
1:36am 6 10 mph 1004.2mb 51f 25f
1:30am 7 14 mph 1004.2mb 51f 25f
1:24am 8 21 mph 1004.1mb 50f 25f
1:18am 9 14 mph 1004.1mb 50f 26f
1:12am 6 14 mph 1004.2mb 48f 26f
1:06am 8 14 mph 1004.1mb 48f 26f
1:00am 7 11 mph 1004mb 49f 26f
12:54am 7 13 mph 1003.9mb 48f 26f
12:48am 6 11 mph 1003.8mb - -
12:42am 6 9 mph 1003.8mb - -
12:36am 3 10 mph 1003.8mb - -
12:30am 7 11 mph 1003.9mb 48f 26f
12:24am 7 13 mph 1003.7mb 49f 26f
12:18am 5 13 mph 1003.3mb 47f 26f
12:12am 7 11 mph 1003.6mb 47f 26f
12:06am 7 14 mph 1003.8mb 48f 26f
12:00am 7 13 mph 1003.6mb 47f 26f
Wed 12/13 11:54pm 6 11 mph 1003.3mb 47f 25f
11:48pm 9 16 mph 1003.2mb 46f 25f
11:42pm 6 8 mph 1002.8mb 47f 25f
11:36pm 6 9 mph 1002.7mb 47f 25f
11:30pm 2 11 mph 1003.1mb 47f 25f
11:24pm 6 16 mph 1003.4mb 47f 25f
11:18pm 9 18 mph 1003.4mb 46f 25f
11:12pm 5 11 mph 1003.6mb 48f 25f
11:06pm 7 10 mph 1003.4mb 48f 25f
11:00pm 7 15 mph 1003.5mb 47f 25f
10:54pm 9 15 mph 1003.4mb 46f 25f
10:48pm 10 14 mph 1003.4mb 47f 25f
10:42pm 9 16 mph 1003.4mb 47f 25f
10:36pm 7 11 mph 1003mb 49f 25f
10:30pm 7 13 mph 1003.1mb 48f 25f
10:24pm 10 16 mph 1003.1mb 48f 25f
10:18pm 10 20 mph 1003mb 48f 26f
10:12pm 7 18 mph 1002.8mb 48f 26f
10:06pm 8 13 mph 1002.5mb 48f 26f
10:00pm 10 16 mph 1002.5mb 49f 26f
9:54pm 9 20 mph 1002.4mb 49f 26f
9:48pm 9 20 mph 1002.3mb 48f 26f
9:42pm 10 16 mph 1002.2mb 49f 26f
9:36pm 11 17 mph 1002.3mb 49f 26f
9:30pm 8 17 mph 1002.4mb 50f 26f
9:24pm 8 18 mph 1002.6mb 50f 26f
9:18pm 7 15 mph 1002.5mb 50f 26f
9:12pm 9 15 mph 1002.7mb 50f 26f
9:06pm 6 15 mph 1002.5mb 50f 26f
9:00pm 6 13 mph 1002.7mb 50f 25f
8:54pm 7 14 mph 1002.6mb 50f 26f
8:48pm 10 16 mph 1002.6mb 50f 26f
8:42pm 6 11 mph 1002.6mb 50f 26f
8:36pm 6 16 mph 1002.5mb 50f 26f
8:30pm 6 14 mph 1002.6mb 50f 26f
8:24pm 9 16 mph 1002.6mb 50f 26f
8:18pm 10 18 mph 1002.3mb 50f 26f
8:12pm 9 17 mph 1002.3mb 51f 26f
8:06pm 11 20 mph 1002.3mb 51f 26f
8:00pm 10 17 mph 1002.3mb 50f 26f
7:54pm 10 17 mph 1002.2mb 50f 26f
7:48pm 9 14 mph 1002.2mb 51f 26f
7:42pm 13 17 mph 1002.2mb 50f 26f
7:36pm 13 18 mph 1002.1mb 51f 26f
7:30pm 11 18 mph 1001.9mb 50f 26f
7:24pm 13 18 mph 1001.7mb 50f 26f
7:18pm 6 15 mph 1001.8mb 51f 26f
7:12pm 9 15 mph 1001.8mb 51f 26f
7:06pm 6 14 mph 1001.8mb 51f 26f
7:00pm 10 16 mph 1001.7mb 51f 26f
6:54pm 8 20 mph 1001.6mb 51f 26f
6:48pm 9 20 mph 1001.6mb 51f 26f
6:42pm 13 20 mph 1001.7mb 50f 26f
6:36pm 10 20 mph 1001.5mb 50f 26f
6:30pm 9 24 mph 1001.3mb 50f 26f
6:24pm 13 16 mph 1001.2mb 51f 26f
6:18pm 13 17 mph 1001.1mb 51f 26f
6:12pm 8 15 mph 1001mb 51f 26f
6:06pm 6 16 mph 1000.9mb 51f 26f
6:00pm 7 20 mph 1000.9mb 51f 26f
5:54pm 9 20 mph 1000.8mb 51f 26f
5:48pm  -  mph 1000.7mb 51f 26f
5:42pm  -  mph 1000.6mb 51f 26f
5:36pm  -  mph 1000.6mb 51f 26f
5:30pm 10 22 mph 1000.3mb 50f 26f
5:24pm 10 17 mph 1000.1mb 51f 26f
5:18pm 7 14 mph 1000.1mb 50f 26f
5:12pm 11 17 mph 999.9mb 50f 26f
5:06pm 8 17 mph 999.8mb 51f 26f
5:00pm 6 20 mph 999.5mb 50f 26f
4:54pm 10 17 mph 999.4mb 50f 26f
4:48pm 8 14 mph 999.4mb 49f 26f
4:42pm 11 16 mph 999.3mb 49f 26f
4:36pm 7 15 mph 999.3mb 49f 26f
4:30pm 8 23 mph 999.2mb 49f 26f
4:24pm 15 23 mph 999.2mb 50f 26f
4:18pm 8 16 mph 999mb 50f 26f
4:12pm 8 14 mph 999mb 50f 26f
4:06pm 9 15 mph 999mb 49f 26f
4:00pm 8 20 mph 998.8mb 49f 27f
3:54pm 9 17 mph 998.7mb 48f 27f
3:48pm 15 21 mph 998.6mb 49f 26f
3:42pm 9 15 mph 998.5mb 48f 27f
3:36pm 9 18 mph 998.4mb 50f 27f
3:30pm 10 18 mph 998.1mb 47f 26f
3:24pm 10 22 mph 998.2mb 47f 26f
3:18pm 8 16 mph 998.1mb 48f 27f
3:12pm 9 16 mph 998mb 49f 26f
3:06pm 9 20 mph 997.9mb 48f 26f
3:00pm 7 22 mph 997.9mb 47f 27f
2:54pm 10 17 mph 997.7mb 47f 26f
2:48pm 14 24 mph 997.5mb 46f 26f
2:42pm 10 22 mph 997.5mb 44f 26f
2:36pm 14 22 mph 997.4mb 43f 26f
2:30pm 13 32 mph 997.4mb 44f 26f
2:24pm 15 33 mph 997.2mb 44f 26f
2:18pm 10 21 mph 997.2mb 44f 26f
2:12pm 9 17 mph 997.1mb 44f 27f
2:06pm 11 25 mph 997.2mb 45f 26f
2:00pm 8 29 mph 997.3mb 45f 26f
1:54pm 11 31 mph 997mb 45f 26f
1:48pm 14 30 mph 997mb 44f 25f
1:42pm 6 21 mph 997.1mb 44f 26f
1:36pm 9 18 mph 997mb 44f 25f
1:30pm 10 25 mph 996.9mb 43f 25f
1:24pm 14 26 mph 996.8mb 43f 24f
1:18pm 16 23 mph 996.7mb 43f 24f
1:12pm 15 23 mph 996.6mb 44f 24f
1:06pm 6 22 mph 996.4mb 44f 25f
1:00pm 11 25 mph 996.5mb 44f 24f
12:54pm 13 29 mph 996.5mb 44f 24f
12:48pm 13 24 mph 996.5mb 44f 23f
12:42pm 13 22 mph 996.4mb 44f 24f
12:36pm 14 28 mph 996.3mb 45f 24f
12:30pm 15 29 mph 996.2mb 46f 24f
12:24pm 14 24 mph 996.1mb 45f 24f
12:18pm 9 23 mph 996.1mb 44f 25f
12:12pm 10 18 mph 996mb 44f 24f
12:06pm 7 16 mph 996mb 44f 26f
12:00pm 9 24 mph 995.8mb 44f 25f
11:54am 18 24 mph 995.9mb 44f 24f
11:48am 8 18 mph 995.9mb 45f 26f
11:42am 8 20 mph 996mb 46f 25f
11:36am 11 22 mph 996mb 46f 24f
11:30am 14 21 mph 995.9mb 45f 24f
11:24am 8 23 mph 995.9mb 45f 25f
11:18am 9 24 mph 996mb 46f 25f
11:12am 14 23 mph 995.9mb 45f 24f
11:06am 11 22 mph 996mb 44f 24f
11:00am 10 22 mph 996mb 45f 25f
10:54am 10 25 mph 996.1mb 46f 25f
10:48am 15 29 mph 996.3mb 48f 24f
10:42am 11 26 mph 996.1mb 48f 24f
10:36am 13 25 mph 996.2mb 47f 24f
10:30am 9 20 mph 996.2mb 48f 24f
10:24am 7 23 mph 996.4mb 48f 25f
10:18am 11 24 mph 996.4mb 49f 24f
10:12am 11 20 mph 996.4mb 49f 24f
10:06am 13 21 mph 996.4mb 49f 24f
10:00am 9 23 mph 996.4mb 49f 24f
9:54am 9 23 mph 996.4mb 50f 24f
9:48am 11 21 mph 996.4mb 50f 24f
9:42am 7 16 mph 996.5mb 49f 24f
9:36am 11 22 mph 996.4mb 50f 24f
9:30am 11 21 mph 996.3mb 51f 23f
9:24am 10 22 mph 996.3mb 51f 23f
9:18am 14 26 mph 996.3mb 50f 22f
9:12am 11 21 mph 996.3mb 51f 22f
9:06am 11 20 mph 996.3mb 51f 22f
9:00am 11 22 mph 996.2mb 50f 22f
8:54am 11 24 mph 996.2mb 50f 22f
8:48am 13 18 mph 996.2mb 50f 22f
8:42am 7 16 mph 996.3mb 50f 22f
8:36am 9 18 mph 996.2mb 50f 21f
8:30am 9 18 mph 996.2mb 49f 21f
8:24am 9 20 mph 996mb 50f 21f
8:18am 10 17 mph 995.9mb 50f 21f
8:12am 14 22 mph 995.9mb 51f 21f
8:06am 14 22 mph 995.8mb 51f 21f
8:00am 8 17 mph 995.8mb 51f 21f
7:54am 11 21 mph 995.6mb 51f 21f
7:48am 8 14 mph 995.5mb 51f 21f
7:42am 7 15 mph 995.5mb 51f 21f
7:36am 14 21 mph 995.4mb 51f 21f
7:30am 13 20 mph 995.4mb 51f 21f
7:24am 11 22 mph 995.2mb 51f 21f
7:18am 13 21 mph 995.2mb 51f 21f
7:12am 10 17 mph 995.1mb 51f 21f
7:06am 14 22 mph 995.1mb 51f 22f
7:00am 7 16 mph 995mb 51f 22f
6:54am 7 14 mph 994.9mb 51f 22f
6:48am 7 14 mph 994.9mb 51f 22f
6:42am 5 11 mph 994.9mb 51f 22f
6:36am 6 14 mph 994.9mb 51f 22f
6:30am 7 16 mph 994.9mb 51f 22f
6:24am 7 14 mph 994.8mb 51f 22f
6:18am 10 17 mph 994.7mb 51f 23f
6:12am 10 16 mph 994.6mb 51f 23f
6:06am 9 13 mph 994.5mb 51f 23f
6:00am 7 11 mph 994.5mb 51f 23f
5:54am 3 11 mph 994.4mb 51f 23f
5:48am 9 14 mph 994.4mb 51f 24f
5:42am 8 16 mph 994.3mb 51f 24f
5:36am 6 17 mph 994.3mb 51f 24f
5:30am 10 22 mph 994.1mb 51f 24f
5:24am 9 17 mph 994.1mb 51f 24f
5:18am 9 15 mph 993.9mb 51f 24f
5:12am 11 20 mph 993.9mb 51f 24f
5:06am 9 20 mph 993.8mb 51f 24f
5:00am 7 16 mph 993.8mb 51f 25f
4:54am 8 16 mph 993.6mb 51f 25f
4:48am 7 16 mph 993.6mb 51f 25f
4:42am 7 20 mph 993.6mb 51f 25f
4:36am 9 14 mph 993.5mb 51f 25f
4:30am 9 17 mph 993.4mb 51f 25f
4:24am 13 22 mph 993.4mb 51f 26f
4:18am 11 20 mph 993.3mb 51f 26f
4:12am 9 18 mph 993.3mb 51f 26f
4:06am 8 14 mph 993.3mb 51f 26f
4:00am 10 17 mph 993.4mb 51f 26f
3:54am 9 17 mph 993.5mb 51f 26f
3:48am 5 16 mph 993.5mb 51f 26f
3:42am 7 14 mph 993.6mb 51f 26f
3:36am 6 18 mph 993.6mb 51f 27f
3:30am 6 10 mph 993.6mb 51f 26f
3:24am 6 11 mph 993.6mb 51f 27f
3:18am 5 15 mph 993.7mb 51f 27f
3:12am 8 16 mph 994mb 51f 27f
3:06am 6 14 mph 993.9mb 51f 27f
3:00am 8 18 mph 993.9mb 51f 27f
2:54am 8 16 mph 994mb 51f 28f
2:48am 13 21 mph 994.2mb 51f 28f
2:42am 9 16 mph 994.2mb 51f 28f
2:36am 8 13 mph 994.4mb 51f 28f
2:30am 8 15 mph 994.6mb 51f 28f
2:24am 10 20 mph 994.6mb 51f 29f
2:18am 6 11 mph 994.6mb 51f 29f
2:12am 3 10 mph 994.5mb 51f 29f
2:06am 6 9 mph 994.6mb 51f 29f
2:00am 5 9 mph 994.6mb 51f 29f
1:54am 7 10 mph 994.5mb 51f 29f
1:48am 6 15 mph 994.5mb 51f 30f
1:42am 6 10 mph 994.4mb 51f 30f
1:36am 6 16 mph 994.3mb 51f 30f
1:30am 5 17 mph 994.3mb 51f 30f
1:24am 7 14 mph 994.2mb 51f 30f
1:18am 7 15 mph 993.6mb 50f 30f
1:12am 6 11 mph 993.7mb 50f 31f
1:06am 6 13 mph 993.9mb 50f 31f
1:00am 5 13 mph 994mb 47f 31f
12:54am 7 17 mph 994mb 46f 31f
12:48am 9 17 mph 994mb 46f -
12:42am 8 11 mph 993.8mb 46f -
12:36am 6 16 mph 993.6mb 46f -
12:30am 6 13 mph 993.6mb 46f 31f
12:24am 6 16 mph 993.6mb 46f 31f
12:18am 10 16 mph 993.4mb 47f 31f
12:12am 5 14 mph 993.3mb 47f 31f
12:06am 7 15 mph 993.5mb 46f 32f
12:00am 8 15 mph 993.7mb 47f 32f
Tue 12/12 11:54pm 7 13 mph 993.9mb 47f 32f
11:48pm 5 11 mph 993.6mb 48f 32f
11:42pm 8 14 mph 993.4mb 48f 32f
11:36pm 7 15 mph 993.1mb 47f 32f
11:30pm 5 13 mph 992.1mb 46f 33f
11:24pm 6 9 mph 992.7mb 46f 33f
11:18pm 3 8 mph 993.4mb 46f 33f
11:12pm 5 10 mph 993.2mb 47f 33f
11:06pm 3 8 mph 993.2mb 48f 34f
11:00pm 5 10 mph 993.1mb 49f 34f
10:54pm 6 17 mph 993.4mb 50f 34f
10:48pm 11 17 mph 993.3mb 50f 35f
10:42pm 10 13 mph 993.5mb 49f 35f
10:36pm 8 15 mph 993.3mb 50f 36f
10:30pm 9 14 mph 993.6mb 50f 36f
10:24pm 8 13 mph 994.2mb 50f 36f
10:18pm 8 13 mph 993.7mb 50f 37f
10:12pm 7 14 mph 993.7mb 50f 37f
10:06pm 10 13 mph 993.7mb 50f 37f
10:00pm 5 11 mph 993.7mb 50f 37f
9:54pm 7 17 mph 993.9mb 50f 38f
9:48pm 6 14 mph 993.4mb 50f 38f
9:42pm 9 18 mph 993.7mb 50f 38f
9:36pm 6 10 mph 993.6mb 50f 38f
9:30pm 3 11 mph 993.5mb 50f 39f
9:24pm 5 14 mph 994mb 50f 39f
9:18pm 5 16 mph 993.8mb 50f 39f
9:12pm 7 10 mph 993.6mb 51f 39f
9:06pm 3 10 mph 993.1mb 50f 39f
9:00pm 6 10 mph 992.9mb 50f 39f
8:54pm 5 9 mph 992.9mb 50f 39f
8:48pm 5 10 mph 993mb 50f 39f
8:42pm 2 9 mph 993.1mb 50f 39f
8:36pm 6 9 mph 993.1mb 50f 39f
8:30pm 7 10 mph 993.2mb 50f 39f
8:24pm 2 7 mph 993.1mb 50f 39f
8:18pm 3 6 mph 993.1mb 50f 39f
8:12pm 3 7 mph 993.2mb 50f 39f
8:06pm 3 10 mph 993.5mb 50f 39f
8:00pm 6 9 mph 993.6mb 50f 39f
7:54pm 3 7 mph 993.8mb 50f 39f
7:48pm 3 6 mph 993.9mb 50f 39f
7:42pm 2 9 mph 993.9mb 50f 40f
7:36pm 6 9 mph 994mb 50f 40f
7:30pm 6 10 mph 994mb 50f 40f
7:24pm 5 9 mph 994.1mb 50f 40f
7:18pm 5 7 mph 994.1mb 50f 40f
7:12pm 3 9 mph 994.1mb 50f 40f
7:06pm 5 9 mph 994.1mb 50f 40f
7:00pm 2 6 mph 994.1mb 50f 40f
6:54pm 2 8 mph 994mb 50f 40f
6:48pm 3 9 mph 994.1mb 50f 40f
6:42pm 2 5 mph 994.1mb 50f 40f
6:36pm 5 7 mph 994mb 50f 40f
6:30pm 5 8 mph 994mb 50f 41f
6:24pm 5 8 mph 994.1mb 50f 41f
6:18pm 5 8 mph 993.9mb 50f 41f
6:12pm 5 7 mph 993.9mb 50f 41f
6:06pm 3 8 mph 993.9mb 50f 41f
6:00pm 6 8 mph 994mb 50f 42f
5:54pm 6 8 mph 993.9mb 50f 42f
5:48pm 6 11 mph 993.9mb 50f 42f
5:42pm 6 10 mph 994mb 50f 42f
5:36pm 7 11 mph 993.8mb 50f 43f
5:30pm 6 10 mph 993.8mb 50f 43f
5:24pm 6 7 mph 993.8mb 50f 44f
5:18pm 3 10 mph 993.7mb 50f 44f
5:12pm 6 9 mph 993.8mb 49f 44f
5:06pm 6 10 mph 993.8mb 49f 44f
5:00pm 7 13 mph 993.8mb 50f 45f
4:54pm 6 13 mph 993.7mb 50f 46f
4:48pm 7 10 mph 993.7mb 50f 48f
4:42pm 3 10 mph 993.6mb 50f 49f
4:36pm 9 13 mph 993.6mb 50f 49f
4:30pm 6 14 mph 993.6mb 50f 49f
4:24pm 8 15 mph 993.7mb 50f 49f
4:18pm 10 20 mph 993.6mb 50f 50f
4:12pm 5 6 mph 993.4mb 50f 49f
4:06pm 5 7 mph 993.5mb 50f 49f
4:00pm 6 6 mph 993.6mb 50f 49f
3:54pm 5 6 mph 993.7mb 50f 49f
3:48pm 5 6 mph 993.8mb 50f 50f
3:42pm 6 7 mph 994mb 51f 50f
3:36pm 5 7 mph 994.2mb 51f 50f
3:30pm 6 7 mph 994.2mb 50f 49f
3:24pm 6 7 mph 994.4mb 49f 50f
3:18pm 6 8 mph 994.4mb 50f 50f
3:12pm 6 8 mph 994.5mb 50f 50f
3:06pm 7 8 mph 994.7mb 50f 51f
3:00pm 7 10 mph 994.9mb 49f 51f
2:54pm 6 10 mph 995mb 49f 51f
2:48pm 7 9 mph 995mb 50f 51f
2:42pm 7 10 mph 995.2mb 50f 51f
2:36pm 7 9 mph 995.3mb 50f 50f
2:30pm 7 9 mph 995.3mb 50f 50f
2:24pm 7 11 mph 995.4mb 50f 50f
2:18pm 6 8 mph 995.5mb 49f 50f
2:12pm 6 8 mph 995.7mb 49f 50f
2:06pm 8 10 mph 995.9mb 49f 50f
2:00pm 8 13 mph 996mb 50f 50f
1:54pm 8 11 mph 996mb 50f 50f
1:48pm 8 14 mph 996.1mb 49f 50f
1:42pm 10 15 mph 996.3mb 49f 49f
1:36pm 13 18 mph 996.5mb 49f 49f
1:30pm 14 18 mph 996.6mb 49f 50f
1:24pm 17 24 mph 996.7mb 50f 50f
1:18pm 15 22 mph 996.8mb 49f 50f
1:12pm 9 15 mph 997.1mb 49f 50f
1:06pm 11 18 mph 997mb 49f 50f
1:00pm 13 18 mph 997.1mb 48f 50f
12:54pm 11 20 mph 997.3mb 48f 50f
12:48pm 11 18 mph 997.7mb 48f 50f
12:42pm 11 23 mph 997.8mb 47f 50f
12:36pm 13 20 mph 998mb 48f 49f
12:30pm 10 20 mph 998.1mb 48f 49f
12:24pm 10 17 mph 998.2mb 48f 49f
12:18pm 9 16 mph 998.4mb 49f 49f
12:12pm 9 15 mph 998.6mb 50f 48f
12:06pm 11 20 mph 998.9mb 50f 48f
12:00pm 10 20 mph 999.4mb 50f 48f
11:54am 14 21 mph 999.5mb 50f 48f
11:48am 13 17 mph 999.7mb 49f 48f
11:42am 11 18 mph 999.9mb 49f 48f
11:36am 13 20 mph 1000.1mb 49f 48f
11:30am 14 18 mph 1000.4mb 49f 48f
11:24am 13 20 mph 1000.7mb 50f 48f
11:18am 11 22 mph 1000.8mb 50f 48f
11:12am 13 17 mph 1000.9mb 50f 48f
11:06am 10 20 mph 1001.2mb 51f 48f
11:00am 9 18 mph 1001.5mb 51f 48f
10:54am 9 15 mph 1001.7mb 51f 47f
10:48am 13 20 mph 1001.9mb 51f 47f
10:42am 11 16 mph 1002.2mb 51f 47f
10:36am 11 20 mph 1002.5mb 51f 47f
10:30am 10 17 mph 1002.6mb 50f 47f
10:24am 11 20 mph 1002.8mb 50f 47f
10:18am 10 14 mph 1003.1mb 50f 47f
10:12am 10 17 mph 1003.5mb 50f 47f
10:06am 11 20 mph 1003.7mb 51f 47f
10:00am 10 17 mph 1003.8mb 50f 47f
9:54am 9 17 mph 1004.1mb 50f 47f
9:48am 11 21 mph 1004.2mb 49f 47f
9:42am 9 18 mph 1004.2mb 50f 47f
9:36am 14 20 mph 1004.3mb 51f 47f
9:30am 11 18 mph 1004.5mb 51f 47f
9:24am 11 16 mph 1004.6mb 51f 47f
9:18am 13 18 mph 1004.8mb 51f 47f
9:12am 13 17 mph 1005mb 51f 47f
9:06am 10 17 mph 1005.2mb 52f 47f
9:00am 11 17 mph 1005.3mb 51f 46f
8:54am 11 16 mph 1005.5mb 52f 46f
8:48am 14 17 mph 1005.7mb 52f 46f
8:42am 13 17 mph 1005.8mb 52f 46f
8:36am 14 18 mph 1006mb 52f 46f
8:30am 13 18 mph 1005.9mb 52f 46f
8:24am 11 17 mph 1006mb 52f 46f
8:18am 10 17 mph 1006.2mb 52f 45f
8:12am 9 15 mph 1006.3mb 52f 45f
8:06am 11 17 mph 1006.5mb 52f 45f
8:00am 11 18 mph 1006.6mb 51f 45f
7:54am 11 17 mph 1006.8mb 51f 45f
7:48am 13 17 mph 1007mb 51f 45f
7:42am 10 16 mph 1007.2mb 51f 45f
7:36am 11 20 mph 1007.4mb 51f 45f
7:30am 15 18 mph 1007.7mb 51f 45f
7:24am 10 14 mph 1007.8mb 51f 44f
7:18am 11 18 mph 1007.4mb 51f 44f
7:12am 10 18 mph 1007.3mb 51f 42f
7:06am 5 7 mph 1007.3mb 51f 37f
7:00am 5 7 mph 1007.6mb 51f 37f
6:54am 3 6 mph 1007.6mb 51f 36f
6:48am 3 5 mph 1007.8mb 51f 36f
6:42am 2 5 mph 1007.9mb 51f 36f
6:36am 5 7 mph 1008.1mb 51f 36f
6:30am 3 7 mph 1008.3mb 51f 36f
6:24am 6 7 mph 1008.4mb 51f 36f
6:18am 6 8 mph 1008.7mb 51f 36f
6:12am 5 6 mph 1008.8mb 52f 36f
6:06am 3 6 mph 1008.9mb 51f 36f
6:00am 3 7 mph 1009.2mb 52f 36f
5:54am 5 7 mph 1009.5mb 52f 36f
5:48am 2 6 mph 1009.5mb 52f 36f
5:42am 5 6 mph 1009.7mb 52f 36f
5:36am 3 6 mph 1009.8mb 52f 36f
5:30am 5 6 mph 1009.8mb 51f 36f
5:24am 2 7 mph 1010mb 51f 36f
5:18am 6 7 mph 1010mb 51f 36f
5:12am 5 6 mph 1010.2mb 52f 36f
5:06am 3 7 mph 1010.3mb 51f 36f
5:00am 5 7 mph 1010.5mb 51f 36f
4:54am 5 7 mph 1010.4mb 51f 36f
4:48am 2 5 mph 1010.5mb 51f 36f
4:42am 2 3 mph 1010.6mb 51f 37f
4:36am 3 5 mph 1010.9mb 51f 37f
4:30am 3 5 mph 1011mb 51f 36f
4:24am 3 5 mph 1011.1mb 51f 36f
4:18am 1 2 mph 1011mb 51f 36f
4:12am 2 3 mph 1011.1mb 51f 36f
4:06am 1 2 mph 1011.1mb 51f 36f
4:00am 2 2 mph 1011.1mb 51f 36f
3:54am 2 5 mph 1011.1mb 51f 36f
3:48am 1 2 mph 1011.3mb 51f 36f
3:42am 2 3 mph 1011.5mb 51f 36f
3:36am 3 3 mph 1011.6mb 51f 36f
3:30am 1 2 mph 1011.7mb 51f 36f
3:24am 1 3 mph 1011.8mb 51f 36f
3:18am 2 5 mph 1012mb 51f 36f
3:12am 2 6 mph 1012.1mb 51f 36f
3:06am 3 7 mph 1012.1mb 51f 36f
3:00am 5 6 mph 1012.4mb 51f 36f
2:54am 2 5 mph 1012.6mb 51f 36f
2:48am 2 3 mph 1012.7mb 51f 36f
2:42am 2 3 mph 1012.8mb 52f 36f
2:36am 2 3 mph 1012.9mb 52f 36f
2:30am 2 3 mph 1013.2mb 52f 36f
2:24am 2 3 mph 1013.2mb 52f 36f
2:18am 1 3 mph 1013.1mb 52f 36f
2:12am 2 3 mph 1013.2mb 52f 36f
2:06am  -  1 mph 1013.3mb 52f 36f
2:00am 1 2 mph 1013.5mb 52f 36f
1:54am 1 2 mph 1013.5mb 52f 36f
1:48am  -  2 mph 1013.6mb 52f -
1:42am 2 2 mph 1013.7mb 52f -
1:36am 2 2 mph 1013.7mb 52f -
1:30am 1 2 mph 1013.8mb 52f 35f
1:24am 2 3 mph 1013.8mb 52f 35f
1:18am 1 2 mph 1013.9mb 52f 35f
1:12am 1 3 mph 1014mb 52f 35f
1:06am 1 2 mph 1014mb 52f 35f
1:00am  -  2 mph 1014.1mb 52f 35f
12:54am 1 2 mph 1014.1mb 52f 35f
12:48am  -  1 mph 1014.2mb 52f 35f
12:42am  -  2 mph 1014.3mb 52f 35f
12:36am  -  3 mph 1014.4mb 51f 35f
12:30am 2 5 mph 1014.5mb 51f 35f
12:24am 2 3 mph 1014.6mb 52f 35f
12:18am 2 2 mph 1014.7mb 52f 35f
12:12am 1 2 mph 1014.9mb 52f 35f
12:06am 2 3 mph 1014.8mb 52f 35f
12:00am 1 2 mph 1015mb 52f 35f
Mon 12/11 11:54pm 1 3 mph 1014.9mb 52f 35f
11:48pm 1 2 mph 1015.1mb 51f 35f
11:42pm 2 3 mph 1015.1mb 51f 35f
11:36pm 2 3 mph 1015.3mb 51f 34f
11:30pm 2 3 mph 1015.2mb 51f 35f
11:24pm 2 3 mph 1015.3mb 51f 34f
11:18pm 1 2 mph 1015.4mb 51f 34f
11:12pm 1 3 mph 1015.4mb 51f 34f
11:06pm 2 3 mph 1015.4mb 51f 34f
11:00pm 1 3 mph 1015.4mb 51f 34f
10:54pm 2 5 mph 1015.5mb 50f 34f
10:48pm 2 3 mph 1015.5mb 50f 34f
10:42pm 2 3 mph 1015.6mb 50f 34f
10:36pm 3 6 mph 1015.7mb 50f 34f
10:30pm 5 6 mph 1015.8mb 50f 34f
10:24pm 3 5 mph 1015.7mb 50f 34f
10:18pm 3 3 mph 1015.8mb 50f 34f
10:12pm 2 5 mph 1015.9mb 50f 34f
10:06pm 2 5 mph 1015.7mb 50f 34f
10:00pm 3 5 mph 1015.8mb 50f 34f
9:54pm 2 3 mph 1015.7mb 50f 33f
9:48pm 1 3 mph 1015.8mb 51f 34f
9:42pm 3 6 mph 1016mb 51f 34f
9:36pm 6 7 mph 1015.8mb 51f 34f
9:30pm 6 6 mph 1015.8mb 51f 34f
9:24pm 5 6 mph 1015.9mb 51f 34f
9:18pm 5 6 mph 1016mb 51f 34f
9:12pm 6 7 mph 1016.1mb 51f 34f
9:06pm 5 6 mph 1016.1mb 51f 34f
9:00pm 5 6 mph 1016.4mb 51f 34f
8:54pm 5 6 mph 1016.3mb 51f 34f
8:48pm 5 6 mph 1016.2mb 51f 34f
8:42pm 2 5 mph 1016.3mb 51f 34f
8:36pm 3 6 mph 1016.2mb 51f 34f
8:30pm 3 5 mph 1016.3mb 51f 34f
8:24pm 5 5 mph 1016.4mb 51f 34f
8:18pm 2 3 mph 1016.2mb 51f 34f
8:12pm 3 5 mph 1016.2mb 51f 34f
8:06pm 3 5 mph 1016.4mb 51f 34f
8:00pm 3 5 mph 1016.4mb 51f 34f
7:54pm 3 5 mph 1016.5mb 51f 35f
7:48pm 3 5 mph 1016.4mb 51f 35f
7:42pm 3 6 mph 1016.4mb 51f 35f
7:36pm 3 5 mph 1016.4mb 51f 35f
7:30pm 3 5 mph 1016.4mb 51f 35f
7:24pm 3 5 mph 1016.4mb 51f 35f
7:18pm 5 5 mph 1016.5mb 51f -
7:12pm 3 3 mph 1016.4mb 51f -
7:06pm 2 3 mph 1016.4mb 51f -
7:00pm 1 2 mph 1016.4mb 51f 35f
6:54pm 2 2 mph 1016.3mb 51f 35f
6:48pm  -  1 mph 1016.2mb 52f 36f
6:42pm  -  1 mph 1016.2mb 52f 36f
6:36pm 1 1 mph 1016.3mb 52f 36f
6:30pm 1 3 mph 1016.3mb 51f 36f
6:24pm 3 3 mph 1016.2mb 51f 36f
6:18pm  -  2 mph 1016.2mb 52f 36f
6:12pm 2 2 mph 1016.2mb 52f 36f
6:06pm  -  0 mph 1016mb 52f 36f
6:00pm  -  0 mph 1016.1mb 52f 36f
5:54pm  -  0 mph 1016mb 52f 37f
5:48pm  -  0 mph 1016.2mb 51f 37f
5:42pm  -  1 mph 1016.2mb 52f 37f
5:36pm  -  2 mph 1015.9mb 52f 37f
5:30pm  -  1 mph 1016mb 52f 37f
5:24pm 1 2 mph 1016mb 52f 37f
5:18pm 1 2 mph 1016mb 52f 37f
5:12pm 2 5 mph 1016mb 52f 37f
5:06pm 2 2 mph 1015.9mb 52f 38f
5:00pm  -  2 mph 1015.8mb 52f 37f
4:54pm 2 3 mph 1015.5mb 52f 37f
4:48pm 2 2 mph 1015.6mb 52f 37f
4:42pm 2 3 mph 1015.7mb 52f 38f
4:36pm 1 5 mph 1015.8mb 52f 38f
4:30pm 5 6 mph 1015.8mb 52f 39f
4:24pm 5 7 mph 1015.8mb 52f 39f
4:18pm 3 6 mph 1015.8mb 52f 39f
4:12pm 3 6 mph 1015.7mb 52f 39f
4:06pm 3 3 mph 1015.5mb 52f 39f
4:00pm 2 5 mph 1015.5mb 51f 40f
3:54pm 3 5 mph 1015.6mb 51f 40f
3:48pm 5 8 mph 1015.5mb 51f 40f
3:42pm 5 9 mph 1015.4mb 51f 40f
3:36pm 5 9 mph 1015.3mb 52f 41f
3:30pm 3 7 mph 1015.1mb 52f 41f
3:24pm 5 8 mph 1015mb 52f 41f
3:18pm 3 6 mph 1014.9mb 52f 40f
3:12pm 3 7 mph 1014.8mb 51f 41f
3:06pm 5 7 mph 1014.7mb 51f 42f
3:00pm 5 7 mph 1014.8mb 51f 41f
2:54pm 5 10 mph 1014.7mb 51f 41f
2:48pm 9 11 mph 1014.6mb 51f 41f
2:42pm 3 6 mph 1014.6mb 51f 41f
2:36pm 3 7 mph 1014.5mb 51f 41f
2:30pm 3 7 mph 1014.5mb 51f 41f
2:24pm 5 10 mph 1014.7mb 50f 42f
2:18pm 2 7 mph 1014.6mb 51f 42f
2:12pm 6 8 mph 1014.6mb 51f 41f
2:06pm 5 8 mph 1014.5mb 51f 41f
2:00pm 7 9 mph 1014.4mb 51f 40f
1:54pm 5 8 mph 1014.3mb 52f 42f
1:48pm 5 7 mph 1014.2mb 51f 41f
1:42pm 3 7 mph 1014.3mb 51f 41f
1:36pm 6 9 mph 1014.4mb 52f 41f
1:30pm 5 9 mph 1014.4mb 51f 41f
1:24pm 5 10 mph 1014.3mb 52f 41f
1:18pm 7 10 mph 1014.4mb 52f 40f
1:12pm 6 8 mph 1014.4mb 52f 42f
1:06pm 3 7 mph 1014.4mb 52f 42f
1:00pm 5 10 mph 1014.5mb 52f 41f
12:54pm 6 9 mph 1014.6mb 52f 41f
12:48pm 3 9 mph 1014.7mb 52f 42f
12:42pm 5 8 mph 1014.8mb 52f 41f
12:36pm 6 9 mph 1014.7mb 52f 41f
12:30pm 7 9 mph 1014.7mb 52f 40f
12:24pm 7 13 mph 1014.9mb 52f 40f
12:18pm 6 9 mph 1015.1mb 52f 41f
12:12pm 6 11 mph 1015.2mb 51f 40f
12:06pm 8 11 mph 1015.2mb 50f 40f
12:00pm 7 10 mph 1015.2mb 50f 40f
11:54am 8 13 mph 1015mb 49f 40f
11:48am 8 11 mph 1015mb 49f 40f
11:42am 6 8 mph 1015mb 49f 40f
11:36am 7 13 mph 1015.2mb 49f 39f
11:30am 5 8 mph 1015.3mb 50f 40f
11:24am 7 13 mph 1015.4mb 48f 39f
11:18am 7 13 mph 1015.5mb 49f 39f
11:12am 6 11 mph 1015.6mb 50f 40f
11:06am 9 13 mph 1015.7mb 50f 39f
11:00am 8 13 mph 1015.8mb 50f 39f
10:54am 8 13 mph 1015.7mb 49f 39f
10:48am 3 11 mph 1015.7mb 50f 39f
10:42am 5 11 mph 1015.8mb 50f 39f
10:36am 6 10 mph 1015.7mb 50f 39f
10:30am 6 13 mph 1015.7mb 50f 39f
10:24am 7 13 mph 1015.8mb 51f 38f
10:18am 7 15 mph 1015.9mb 50f 38f
10:12am 8 15 mph 1015.9mb 51f 38f
10:06am 3 11 mph 1015.7mb 51f 38f
10:00am 7 13 mph 1015.9mb 51f 38f
9:54am 8 13 mph 1016.1mb 51f 37f
9:48am 5 11 mph 1016.2mb 51f 38f
9:42am 7 14 mph 1016.2mb 51f 37f
9:36am 7 13 mph 1016.1mb 51f 37f
9:30am 9 15 mph 1016mb 50f 37f
9:24am 7 10 mph 1016mb 50f 37f
9:18am 5 8 mph 1016mb 50f 37f
9:12am 6 10 mph 1015.9mb 50f 36f
9:06am 6 9 mph 1015.9mb 50f 36f
9:00am 5 8 mph 1015.9mb 50f 35f
8:54am 5 7 mph 1015.9mb 50f 35f
8:48am 3 9 mph 1015.9mb 50f 35f
8:42am 3 6 mph 1015.8mb 50f 35f
8:36am 3 6 mph 1015.8mb 51f 35f
8:30am 2 6 mph 1015.8mb 51f 35f
8:24am 5 7 mph 1015.6mb 50f 35f
8:18am 2 5 mph 1015.5mb 50f 34f
8:12am 2 6 mph 1015.8mb 51f 34f
8:06am 2 6 mph 1015.8mb 51f 34f
8:00am 5 10 mph 1015.9mb 51f 34f
7:54am 7 8 mph 1015.8mb 51f 34f
7:48am 5 9 mph 1015.7mb 51f 34f
7:42am 6 11 mph 1015.6mb 51f 34f
7:36am 5 10 mph 1015.8mb 51f 34f
7:30am 5 13 mph 1015.8mb 52f 34f
7:24am 6 13 mph 1015.7mb 52f 34f
7:18am 7 14 mph 1015.7mb 52f 34f
7:12am 6 11 mph 1015.6mb 52f 35f
7:06am 6 11 mph 1015.6mb 52f 35f
7:00am 3 7 mph 1015.5mb 52f 35f
6:54am 3 6 mph 1015.5mb 52f 35f
6:48am 3 9 mph 1015.4mb 51f 35f
6:42am 6 9 mph 1015.4mb 51f 35f
6:36am 5 8 mph 1015.3mb 51f 35f
6:30am 5 8 mph 1015.3mb 51f 35f
6:24am 2 6 mph 1015.2mb 51f 35f
6:18am 3 6 mph 1015.1mb 52f 34f
6:12am 5 8 mph 1015.1mb 52f 34f
6:06am 2 5 mph 1015mb 52f 34f
6:00am 2 5 mph 1015mb 52f 34f
5:54am 1 3 mph 1015.1mb 52f 34f
5:48am 2 5 mph 1015mb 52f 34f
5:42am 3 7 mph 1015mb 52f 34f
5:36am 3 6 mph 1015mb 52f 34f
5:30am 3 7 mph 1014.9mb 52f 34f
5:24am 2 8 mph 1014.8mb 52f 34f
5:18am 3 7 mph 1014.8mb 52f 34f
5:12am 3 6 mph 1014.8mb 52f 34f
5:06am 5 8 mph 1014.8mb 52f 35f
5:00am 6 8 mph 1014.8mb 52f 35f
4:54am 5 8 mph 1014.9mb 52f 35f
4:48am 6 9 mph 1014.8mb 52f 35f
4:42am 3 7 mph 1014.7mb 52f 35f
4:36am 2 9 mph 1014.7mb 52f 35f
4:30am 3 8 mph 1014.6mb 52f 35f
4:24am 6 8 mph 1014.5mb 52f 35f
4:18am 7 8 mph 1014.5mb 52f 35f
4:12am 6 9 mph 1014.5mb 52f 35f
4:06am 3 8 mph 1014.4mb 52f 35f
4:00am 6 9 mph 1014.4mb 52f 35f
3:54am 5 9 mph 1014.4mb 52f 35f
3:48am 6 8 mph 1014.4mb 52f 35f
3:42am 2 8 mph 1014.3mb 52f 35f
3:36am 6 9 mph 1014.4mb 52f 35f
3:30am 7 13 mph 1014.5mb 52f 35f
3:24am 5 8 mph 1014.4mb 52f 35f
3:18am 5 9 mph 1014.5mb 52f 35f
3:12am 3 10 mph 1014.6mb 52f 35f
3:06am 6 11 mph 1014.6mb 52f 35f
3:00am 5 9 mph 1014.7mb 51f 35f
2:54am 6 9 mph 1014.8mb 51f 35f
2:48am 7 9 mph 1014.8mb 51f 35f
2:42am 6 10 mph 1014.8mb 51f 35f
2:36am 6 11 mph 1014.8mb 52f 35f
2:30am 5 9 mph 1014.9mb 52f 35f
2:24am 7 10 mph 1014.9mb 52f 35f
2:18am 6 8 mph 1014.9mb 51f 35f
2:12am 5 8 mph 1014.8mb 51f 35f
2:06am 6 13 mph 1014.8mb 52f 36f
2:00am 7 10 mph 1014.9mb 52f 36f
1:54am 5 9 mph 1014.9mb 52f 36f
1:48am 6 9 mph 1014.9mb - -
1:42am 5 11 mph 1014.9mb - -
1:36am 7 11 mph 1014.9mb - -
1:30am 6 10 mph 1014.8mb 51f 36f
1:24am 6 11 mph 1014.9mb 50f 36f
1:18am 6 9 mph 1015mb 51f 36f
1:12am 7 10 mph 1015.1mb 51f 36f
1:06am 6 10 mph 1015.1mb 51f 36f
1:00am 6 9 mph 1015.1mb 50f 36f
12:54am 5 10 mph 1015.1mb 51f 36f
12:48am 5 9 mph 1015.2mb 51f 36f
12:42am 3 10 mph 1015.2mb 51f 36f
12:36am 3 13 mph 1015.2mb 50f 36f
12:30am 7 11 mph 1015.1mb 51f 37f
12:24am 7 11 mph 1015.1mb 51f 37f
12:18am 7 14 mph 1015.2mb 52f 37f
12:12am 7 10 mph 1015.2mb 52f 37f
12:06am 2 9 mph 1015.2mb 52f 37f
12:00am 6 11 mph 1015.3mb 52f 37f
Sun 12/10 11:54pm 7 10 mph 1015.3mb 52f 37f
11:48pm 7 11 mph 1015.3mb 52f 37f
11:42pm 3 8 mph 1015.4mb 52f 37f
11:36pm 7 11 mph 1015.3mb 52f 37f
11:30pm 10 14 mph 1015.3mb 52f 37f
11:24pm 7 13 mph 1015.2mb 51f 37f
11:18pm 7 10 mph 1015.2mb 51f 37f
11:12pm 6 8 mph 1015.2mb 51f 37f
11:06pm 2 7 mph 1015.2mb 51f 37f
11:00pm 5 9 mph 1015.2mb 52f 37f
10:54pm 6 10 mph 1015.2mb 51f 37f
10:48pm 5 8 mph 1015.2mb 51f 37f
10:42pm 3 9 mph 1015.3mb 50f 37f
10:36pm 5 10 mph 1015.3mb 50f 37f
10:30pm 5 14 mph 1015.4mb 50f 37f
10:24pm 5 16 mph 1015.4mb 51f 37f
10:18pm 6 10 mph 1015.4mb 50f 37f
10:12pm 6 10 mph 1015.4mb 50f 37f
10:06pm 5 10 mph 1015.4mb 49f 37f
10:00pm 7 14 mph 1015.3mb 49f 37f
9:54pm 8 15 mph 1015.2mb 50f 37f
9:48pm 8 13 mph 1015.2mb 51f 37f
9:42pm 8 15 mph 1015.2mb 50f 37f
9:36pm 7 10 mph 1015.2mb 50f 36f
9:30pm 8 11 mph 1015.1mb 50f 37f
9:24pm 9 13 mph 1015.1mb 50f 37f
9:18pm 8 15 mph 1015.1mb 50f 37f
9:12pm 9 14 mph 1015.2mb 50f 37f
9:06pm 7 10 mph 1015.1mb 50f 37f
9:00pm 8 14 mph 1015.1mb 50f 37f
8:54pm 5 7 mph 1015.1mb 50f 37f
8:48pm 5 11 mph 1015mb 49f 37f
8:42pm 3 9 mph 1015mb 49f 37f
8:36pm 6 9 mph 1014.9mb 49f 37f
8:30pm 6 9 mph 1014.9mb 50f 37f
8:24pm 7 10 mph 1014.9mb 51f 37f
8:18pm 5 8 mph 1014.8mb 51f 37f
8:12pm 6 8 mph 1014.8mb 51f 36f
8:06pm 5 7 mph 1014.8mb 51f 36f
8:00pm 3 7 mph 1014.8mb 51f 36f
7:54pm 1 6 mph 1014.8mb 51f 36f
7:48pm 1 5 mph 1014.7mb 51f 36f
7:42pm  -  3 mph 1014.7mb 51f 35f
7:36pm  -  2 mph 1014.6mb 51f 35f
7:30pm  -  1 mph 1014.5mb 51f 35f
7:24pm 1 2 mph 1014.5mb 51f 35f
7:18pm  -  1 mph 1014.5mb 51f 35f
7:12pm  -  3 mph 1014.5mb 51f 35f
7:06pm 2 2 mph 1014.5mb 51f 35f
7:00pm  -  3 mph 1014.3mb 51f 35f
6:54pm 2 5 mph 1014.3mb 51f 35f
6:48pm 2 3 mph 1014.3mb 51f 35f
6:42pm 2 3 mph 1014.3mb 51f 35f
6:36pm  -  5 mph 1014.3mb 51f 35f
6:30pm 2 5 mph 1014.4mb 51f 35f
6:24pm 2 5 mph 1014.4mb 51f 35f
6:18pm 2 6 mph 1014.4mb 51f 35f
6:12pm 3 5 mph 1014.3mb 51f 35f
6:06pm  -  1 mph 1014.2mb 51f 35f
6:00pm  -  3 mph 1014.2mb 51f 35f
5:54pm  -  2 mph 1014.1mb 51f 35f
5:48pm  -  2 mph 1014mb 51f 35f
5:42pm 2 3 mph 1013.8mb 52f 35f
5:36pm 1 3 mph 1013.9mb 52f 36f
5:30pm 1 5 mph 1013.7mb 52f 36f
5:24pm 2 5 mph 1013.6mb 52f 36f
5:18pm 2 8 mph 1013.6mb 52f 37f
5:12pm 6 9 mph 1013.5mb 52f 37f
5:06pm 3 10 mph 1013.4mb 52f 37f
5:00pm 5 6 mph 1013.4mb 52f 37f
4:54pm 6 8 mph 1013.4mb 52f 37f
4:48pm  -  3 mph 1013.4mb 52f 37f
4:42pm 2 6 mph 1013.3mb 52f 37f
4:36pm 5 8 mph 1013.2mb 52f 37f
4:30pm 5 11 mph 1013.2mb 52f 38f
4:24pm 3 6 mph 1013.1mb 52f 38f
4:18pm 6 11 mph 1013mb 52f 38f
4:12pm 7 10 mph 1012.8mb 52f 38f
4:06pm 6 8 mph 1012.7mb 52f 39f
4:00pm 5 9 mph 1012.6mb 52f 39f
3:54pm 5 10 mph 1012.3mb 52f 39f
3:48pm 5 7 mph 1012.2mb 52f 40f
3:42pm 5 9 mph 1012.1mb 52f 40f